Regional Weather Roundup
Issued by NWS Little Rock, AR

Home | Current Version | Previous Version | Text Only | Print | Product List | Glossary Off
Versions: 1 2 3 4 5 6 7 8 9 10 11 12 13 14 15 16 17 18 19 20 21 22 23 24 25 26 27 28 29 30 31 32

000
ASUS44 KLZK 240005
RWRLZK

WEATHER ROUNDUP FOR ARKANSAS
NATIONAL WEATHER SERVICE LITTLE ROCK AR
600 PM CST THU NOV 23 2017

NOTE: "FAIR" INDICATES FEW OR NO CLOUDS BELOW 12,000 FEET WITH NO
SIGNIFICANT WEATHER AND/OR OBSTRUCTIONS TO VISIBILITY.

ARZ001-003-010-029-240100-
NORTHWEST ARKANSAS

CITY           SKY/WX    TMP DP  RH WIND       PRES   REMARKS
FAYETTEVILLE   CLEAR     44  33  65 CALM      30.01F
6HR MIN TEMP:  43; 6HR MAX TEMP:  63;

FORT SMITH     CLEAR     54  33  45 CALM      30.02F
6HR MIN TEMP:  52; 6HR MAX TEMP:  64;

HARRISON       CLEAR     57  28  33 W3        30.01S
6HR MIN TEMP:  57; 6HR MAX TEMP:  64;

BENTONVILLE    CLEAR     54  29  38 S3        30.02F
6HR MIN TEMP:  54; 6HR MAX TEMP:  62;

ROGERS         CLEAR     54  31  41 SW5       30.01F
6HR MIN TEMP:  54; 6HR MAX TEMP:  62;

SILOAM SPGS    CLEAR     54  29  38 SW5       30.02S
6HR MIN TEMP:  53; 6HR MAX TEMP:  63;

HIGHFILL       CLEAR     55  28  35 SW5       30.01F
6HR MIN TEMP:  53; 6HR MAX TEMP:  63;

SPRINGDALE     CLEAR     55  28  35 SW3       30.02F
$$

ARZ004-005-016-240100-
NORTH CENTRAL ARKANSAS

CITY           SKY/WX    TMP DP  RH WIND       PRES   REMARKS
BATESVILLE     CLEAR     52  25  35 S5        30.03S
6HR MIN TEMP:  52; 6HR MAX TEMP:  59;

FLIPPIN        CLEAR     54  30  40 CALM      30.00S
6HR MIN TEMP:  54; 6HR MAX TEMP:  64;

MTN HOME       CLEAR     53  28  38 S3        29.99S
6HR MIN TEMP:  52; 6HR MAX TEMP:  62;

$$

ARZ040-041-240100-
WEST CENTRAL ARKANSAS

CITY           SKY/WX    TMP DP  RH WIND       PRES   REMARKS
MENA           CLEAR     57  32  38 CALM      30.05S
MOUNT IDA      CLEAR     53  31  42 CALM      30.03R
6HR MIN TEMP:  53; 6HR MAX TEMP:  66;

$$

ARZ009-017-025-026-028-240100-
NORTHEAST ARKANSAS

CITY           SKY/WX    TMP DP  RH WIND       PRES   REMARKS
CORNING        FAIR      45  30  57 S7        30.03R
JONESBORO      CLEAR     45  29  53 SW3       30.04R
6HR MIN TEMP:  45; 6HR MAX TEMP:  54;

NEWPORT        CLEAR     43  30  60 MISG      30.04S
6HR MIN TEMP:  43; 6HR MAX TEMP:  56;

WALNUT RIDGE     N/A    N/A N/A N/A MISG        N/A
6HR MIN TEMP:  46; 6HR MAX TEMP:  54;

BLYTHEVILLE    CLEAR     45  31  58 S3        30.04S
6HR MIN TEMP:  44; 6HR MAX TEMP:  53;

$$

ARZ022-023-033-042-044-240100-
CENTRAL ARKANSAS

CITY           SKY/WX    TMP DP  RH WIND       PRES   REMARKS
LITTLE ROCK    CLEAR     48  29  47 S5        30.05F
6HR MIN TEMP:  47; 6HR MAX TEMP:  59;

N LITTLE ROCK    N/A     51  27  39 CALM      30.08S
6HR MIN TEMP:  52; 6HR MAX TEMP:  60;

JACKSONVILLE   CLEAR     46  29  51 CALM      30.04S
6HR MIN TEMP:  46; 6HR MAX TEMP:  60;

SEARCY         CLEAR     46  29  51 S3        30.05S
6HR MIN TEMP:  46; 6HR MAX TEMP:  59;

HOT SPRINGS    CLEAR     54  29  38 CALM      30.05S
6HR MIN TEMP:  54; 6HR MAX TEMP:  62;

RUSSELLVILLE   CLEAR     45  34  65 E3        30.03S
6HR MIN TEMP:  45; 6HR MAX TEMP:  61;

CLINTON        FAIR      45  36  70 CALM      30.04R
$$

ARZ036-240100-
EAST ARKANSAS

CITY           SKY/WX    TMP DP  RH WIND       PRES   REMARKS
WEST MEMPHIS   CLEAR     44  28  53 S5        30.04F
6HR MIN TEMP:  44; 6HR MAX TEMP:  54; 6HR PCP: TRACE;

$$

ARZ050-053-066-070-073-240100-
SOUTHWEST ARKANSAS

CITY           SKY/WX    TMP DP  RH WIND       PRES   REMARKS
ARKADELPHIA    FAIR      46  32  58 CALM      30.07S
6HR MIN TEMP:  46; 6HR MAX TEMP:  60;

CAMDEN         CLEAR     46  30  53 CALM      30.07F
TEXARKANA      CLEAR     50  31  48 S3        30.08R
6HR MIN TEMP:  48; 6HR MAX TEMP:  59;

EL DORADO      CLEAR     45  34  65 CALM      30.08S
6HR MIN TEMP:  45; 6HR MAX TEMP:  60;

DE QUEEN       CLEAR     48  35  60 CALM      30.05R
6HR MIN TEMP:  48; 6HR MAX TEMP:  61;

$$

ARZ056-057-069-240100-
SOUTHEAST ARKANSAS

CITY           SKY/WX    TMP DP  RH WIND       PRES   REMARKS
PINE BLUFF     CLEAR     49  27  42 S3        30.07S
6HR MIN TEMP:  49; 6HR MAX TEMP:  59;

STUTTGART      CLEAR     51  28  41 S5        30.06S
6HR MIN TEMP:  50; 6HR MAX TEMP:  55;

MONTICELLO     CLEAR     47  29  49 CALM      30.08R
6HR MIN TEMP:  47; 6HR MAX TEMP:  59;


$$






USA.gov is the U.S. government's official web portal to all federal, state and local government web resources and services.